| time (UTC) | temp C | wind direction | speed KPH | gust KPH | rain 1hr cm | rain 24hr cm | rain mn cm | humidity % | barometer mb |
| 20260505012052 | 11 | 0 | 9.7 | 32.2 | 0.00 | 0.05 | 0.05 | 63 | 1006.7 |
| 20260505011553 | 11 | 0 | 12.9 | 32.2 | 0.00 | 0.05 | 0.05 | 63 | 1006.7 |
| 20260505011053 | 11 | 0 | 17.7 | 30.6 | 0.00 | 0.05 | 0.05 | 63 | 1006.6 |
| 20260505010554 | 11 | 0 | 11.3 | 27.4 | 0.00 | 0.05 | 0.05 | 64 | 1006.7 |
| 20260505010054 | 11 | 0 | 12.9 | 25.7 | 0.00 | 0.05 | 0.05 | 64 | 1006.5 |
| 20260505005553 | 11 | 0 | 14.5 | 24.1 | 0.00 | 0.05 | 0.05 | 64 | 1006.3 |
| 20260505005421 | 11 | 0 | 11.3 | 24.1 | 0.00 | 0.05 | 0.05 | 63 | 1006.2 |
| 20260505005125 | 11 | 0 | 9.7 | 22.5 | 0.00 | 0.05 | 0.05 | 64 | 1006.4 |
| 20260505004332 | 11 | 0 | 16.1 | 24.1 | 0.00 | 0.05 | 0.05 | 63 | 1006.2 |
| 20260505003553 | 11 | 0 | 11.3 | 24.1 | 0.00 | 0.05 | 0.05 | 63 | 1006.3 |
| 20260505003054 | 11 | 0 | 12.9 | 27.4 | 0.00 | 0.05 | 0.05 | 62 | 1006.1 |
| 20260505002842 | 11 | 0 | 16.1 | 30.6 | 0.00 | 0.08 | 0.05 | 62 | 1006.1 |
| 20260505002334 | 11 | 0 | 9.7 | 30.6 | 0.00 | 0.10 | 0.05 | 62 | 1006.1 |
| 20260505001552 | 11 | 0 | 14.5 | 29.0 | 0.00 | 0.13 | 0.05 | 61 | 1005.9 |
| 20260505001053 | 12 | 0 | 12.9 | 35.4 | 0.00 | 0.15 | 0.05 | 61 | 1005.8 |
| 20260505000848 | 12 | 0 | 14.5 | 27.4 | 0.00 | 0.20 | 0.05 | 59 | 1005.6 |
| 20260505000842 | 12 | 0 | 14.5 | 35.4 | 0.00 | 0.15 | 0.05 | 60 | 1005.7 |
| 20260504235552 | 12 | 0 | 14.5 | 30.6 | 0.00 | 0.23 | 0.05 | 59 | 1005.7 |
| 20260504235052 | 12 | 0 | 16.1 | 30.6 | 0.00 | 0.25 | 0.05 | 59 | 1005.5 |
| 20260504234551 | 12 | 0 | 17.7 | 35.4 | 0.00 | 0.30 | 0.05 | 59 | 1005.5 |
| 20260504234051 | 12 | 0 | 11.3 | 35.4 | 0.00 | 0.33 | 0.05 | 59 | 1005.4 |
| 20260504233552 | 12 | 0 | 14.5 | 33.8 | 0.00 | 0.33 | 0.05 | 58 | 1005.2 |
| 20260504233052 | 12 | 0 | 16.1 | 33.8 | 0.00 | 0.33 | 0.05 | 58 | 1005.1 |
| 20260504232550 | 12 | 0 | 11.3 | 24.1 | 0.00 | 0.36 | 0.05 | 59 | 1005.0 |
| 20260504232049 | 12 | 0 | 16.1 | 24.1 | 0.00 | 0.38 | 0.05 | 59 | 1004.9 |
| 20260504231838 | 12 | 0 | 11.3 | 25.7 | 0.00 | 0.38 | 0.05 | 59 | 1004.9 |
| 20260504231050 | 12 | 0 | 14.5 | 25.7 | 0.00 | 0.41 | 0.05 | 59 | 1004.8 |
| 20260504230551 | 12 | 0 | 8.0 | 29.0 | 0.00 | 0.41 | 0.05 | 59 | 1004.8 |
| 20260504230051 | 12 | 0 | 11.3 | 29.0 | 0.00 | 0.41 | 0.05 | 58 | 1004.7 |
| 20260504225550 | 13 | 0 | 11.3 | 30.6 | 0.00 | 0.43 | 0.05 | 58 | 1004.7 |
| 20260504225050 | 13 | 0 | 14.5 | 30.6 | 0.00 | 0.43 | 0.05 | 57 | 1004.7 |
| 20260504224550 | 13 | 0 | 12.9 | 29.0 | 0.00 | 0.43 | 0.05 | 57 | 1004.6 |
| 20260504224331 | 13 | 0 | 11.3 | 29.0 | 0.00 | 0.43 | 0.05 | 56 | 1004.5 |
| 20260504223548 | 13 | 0 | 6.4 | 20.9 | 0.00 | 0.46 | 0.05 | 55 | 1004.4 |
| 20260504223049 | 13 | 0 | 6.4 | 22.5 | 0.00 | 0.48 | 0.05 | 54 | 1004.5 |
| 20260504222550 | 14 | 0 | 14.5 | 25.7 | 0.00 | 0.51 | 0.05 | 53 | 1004.5 |
| 20260504222050 | 14 | 0 | 6.4 | 25.7 | 0.00 | 0.51 | 0.05 | 52 | 1004.5 |
| 20260504221838 | 14 | 0 | 12.9 | 25.7 | 0.00 | 0.51 | 0.05 | 51 | 1004.5 |
| 20260504221049 | 14 | 0 | 14.5 | 25.7 | 0.00 | 0.51 | 0.05 | 50 | 1004.4 |
| 20260504220845 | 15 | 0 | 11.3 | 37.0 | 0.00 | 0.53 | 0.05 | 50 | 1004.4 |
| 20260504220049 | 15 | 0 | 16.1 | 37.0 | 0.00 | 0.53 | 0.05 | 49 | 1004.3 |
| 20260504215549 | 15 | 0 | 8.0 | 29.0 | 0.00 | 0.56 | 0.05 | 51 | 1004.4 |
| 20260504215049 | 15 | 0 | 19.3 | 30.6 | 0.00 | 0.56 | 0.05 | 49 | 1004.3 |
| 20260504214548 | 15 | 0 | 14.5 | 30.6 | 0.00 | 0.58 | 0.05 | 49 | 1004.5 |
| 20260504214328 | 15 | 0 | 12.9 | 38.6 | 0.00 | 0.58 | 0.05 | 48 | 1004.6 |
| 20260504213849 | 15 | 0 | 12.9 | 38.6 | 0.00 | 0.58 | 0.05 | 49 | 1004.6 |
| 20260504213049 | 15 | 0 | 16.1 | 38.6 | 0.00 | 0.61 | 0.05 | 47 | 1004.7 |
| 20260504212844 | 15 | 0 | 19.3 | 38.6 | 0.00 | 0.61 | 0.05 | 46 | 1004.5 |
| 20260504212047 | 15 | 0 | 22.5 | 38.6 | 0.00 | 0.61 | 0.05 | 47 | 1004.5 |
| 20260504211547 | 16 | 0 | 20.9 | 51.5 | 0.00 | 0.61 | 0.05 | 46 | 1004.4 |
| 20260504211048 | 16 | 0 | 29.0 | 51.5 | 0.00 | 0.64 | 0.05 | 47 | 1004.5 |
| 20260504210550 | 16 | 0 | 16.1 | 35.4 | 0.00 | 0.66 | 0.05 | 46 | 1004.4 |
| 20260504210048 | 16 | 0 | 22.5 | 51.5 | 0.00 | 0.69 | 0.05 | 46 | 1004.3 |
| 20260504205548 | 16 | 0 | 25.7 | 53.1 | 0.00 | 0.71 | 0.05 | 46 | 1004.2 |
| 20260504205046 | 16 | 0 | 22.5 | 53.1 | 0.00 | 0.71 | 0.05 | 46 | 1004.2 |
| 20260504204547 | 16 | 0 | 24.1 | 48.3 | 0.00 | 0.74 | 0.05 | 45 | 1004.1 |
| 20260504204048 | 16 | 0 | 16.1 | 48.3 | 0.00 | 0.79 | 0.05 | 46 | 1003.9 |
| 20260504203546 | 16 | 0 | 24.1 | 37.0 | 0.00 | 0.79 | 0.05 | 45 | 1004.2 |
| 20260504203046 | 16 | 0 | 14.5 | 48.3 | 0.00 | 0.86 | 0.05 | 46 | 1003.9 |
| 20260504202546 | 16 | 0 | 16.1 | 48.3 | 0.00 | 0.89 | 0.05 | 46 | 1003.9 |
| 20260504202047 | 16 | 0 | 27.4 | 41.8 | 0.00 | 0.91 | 0.05 | 45 | 1003.9 |
| 20260504201547 | 16 | 0 | 16.1 | 45.1 | 0.00 | 0.94 | 0.05 | 47 | 1003.6 |
| 20260504201046 | 16 | 0 | 27.4 | 45.1 | 0.00 | 0.97 | 0.05 | 46 | 1003.6 |
| 20260504200545 | 16 | 0 | 19.3 | 49.9 | 0.00 | 0.99 | 0.05 | 47 | 1003.6 |
| 20260504200045 | 16 | 0 | 22.5 | 49.9 | 0.00 | 1.02 | 0.05 | 47 | 1003.6 |
| 20260504195842 | 16 | 0 | 22.5 | 46.7 | 0.00 | 1.04 | 0.05 | 48 | 1003.5 |
| 20260504195045 | 16 | 0 | 20.9 | 38.6 | 0.00 | 1.07 | 0.05 | 49 | 1003.4 |
| 20260504194545 | 16 | 0 | 19.3 | 46.7 | 0.00 | 1.09 | 0.05 | 50 | 1003.4 |
| 20260504194045 | 16 | 0 | 25.7 | 46.7 | 0.00 | 1.12 | 0.05 | 50 | 1003.3 |
| 20260504193545 | 16 | 0 | 16.1 | 38.6 | 0.00 | 1.17 | 0.05 | 49 | 1003.3 |
| 20260504193047 | 16 | 0 | 19.3 | 45.1 | 0.00 | 1.17 | 0.05 | 47 | 1003.5 |
| 20260504192547 | 16 | 0 | 14.5 | 45.1 | 0.00 | 1.22 | 0.05 | 47 | 1003.4 |
| 20260504192342 | 16 | 0 | 17.7 | 37.0 | 0.00 | 1.22 | 0.05 | 47 | 1003.2 |
| 20260504191545 | 16 | 0 | 17.7 | 43.5 | 0.00 | 1.27 | 0.05 | 47 | 1003.4 |
| 20260504191044 | 16 | 0 | 19.3 | 43.5 | 0.00 | 1.30 | 0.05 | 47 | 1003.4 |
| 20260504190545 | 16 | 0 | 19.3 | 37.0 | 0.00 | 1.32 | 0.05 | 45 | 1003.3 |
| 20260504190045 | 16 | 0 | 17.7 | 37.0 | 0.00 | 1.37 | 0.05 | 44 | 1003.3 |
| 20260504185545 | 16 | 0 | 22.5 | 41.8 | 0.00 | 1.40 | 0.05 | 43 | 1003.3 |
| 20260504185044 | 16 | 0 | 19.3 | 41.8 | 0.00 | 1.45 | 0.05 | 43 | 1003.1 |
| 20260504184545 | 16 | 0 | 14.5 | 32.2 | 0.00 | 1.52 | 0.05 | 42 | 1003.1 |
| 20260504184042 | 16 | 0 | 17.7 | 41.8 | 0.00 | 1.55 | 0.05 | 41 | 1003.2 |
| 20260504183841 | 16 | 0 | 14.5 | 41.8 | 0.00 | 1.57 | 0.05 | 42 | 1003.1 |
| 20260504183043 | 16 | 0 | 17.7 | 41.8 | 0.00 | 1.60 | 0.05 | 42 | 1003.0 |
| 20260504182543 | 16 | 0 | 17.7 | 32.2 | 0.00 | 1.63 | 0.05 | 40 | 1003.2 |
| 20260504182339 | 16 | 0 | 14.5 | 41.8 | 0.00 | 1.65 | 0.05 | 41 | 1003.3 |
| 20260504181543 | 15 | 0 | 24.1 | 41.8 | 0.00 | 1.70 | 0.05 | 41 | 1003.2 |
| 20260504181044 | 15 | 0 | 19.3 | 43.5 | 0.00 | 1.73 | 0.05 | 40 | 1003.3 |
| 20260504180543 | 15 | 0 | 17.7 | 43.5 | 0.00 | 1.75 | 0.05 | 38 | 1003.4 |
| 20260504180043 | 15 | 0 | 17.7 | 49.9 | 0.00 | 1.75 | 0.05 | 37 | 1003.6 |
| 20260504175543 | 15 | 0 | 27.4 | 49.9 | 0.00 | 1.78 | 0.05 | 37 | 1003.5 |
| 20260504175042 | 15 | 0 | 17.7 | 46.7 | 0.00 | 1.78 | 0.05 | 38 | 1003.5 |
| 20260504174542 | 15 | 0 | 25.7 | 53.1 | 0.00 | 1.80 | 0.05 | 35 | 1003.5 |
| 20260504174042 | 15 | 0 | 32.2 | 53.1 | 0.00 | 1.83 | 0.05 | 36 | 1003.6 |
| 20260504173541 | 15 | 0 | 22.5 | 38.6 | 0.00 | 1.83 | 0.05 | 36 | 1003.4 |
| 20260504173042 | 15 | 0 | 22.5 | 38.6 | 0.00 | 1.85 | 0.05 | 37 | 1003.6 |
| 20260504172542 | 15 | 0 | 14.5 | 33.8 | 0.00 | 1.88 | 0.05 | 38 | 1003.6 |
| 20260504172335 | 15 | 0 | 19.3 | 46.7 | 0.00 | 1.91 | 0.05 | 36 | 1003.6 |
| 20260504171542 | 15 | 0 | 19.3 | 51.5 | 0.00 | 1.93 | 0.05 | 35 | 1003.6 |
| 20260504171041 | 15 | 0 | 30.6 | 51.5 | 0.00 | 1.96 | 0.05 | 37 | 1003.6 |
| 20260504170542 | 15 | 0 | 20.9 | 51.5 | 0.00 | 1.96 | 0.05 | 36 | 1003.8 |
| 20260504151038 | 12 | 0 | 27.4 | 54.7 | 0.00 | 2.49 | 0.05 | 45 | 1004.2 |
| 20260504150538 | 12 | 0 | 20.9 | 53.1 | 0.00 | 2.49 | 0.05 | 45 | 1004.2 |
| 20260504141037 | 10 | 0 | 20.9 | 51.5 | 0.00 | 2.77 | 0.05 | 50 | 1003.9 |
| 20260504140537 | 10 | 0 | 25.7 | 54.7 | 0.00 | 2.77 | 0.05 | 50 | 1004.1 |
| 20260504130536 | 8 | 0 | 29.0 | 53.1 | 0.00 | 2.92 | 0.05 | 61 | 1003.8 |
| 20260504110634 | 5 | 0 | 24.1 | 43.5 | 0.00 | 2.95 | 0.05 | 82 | 1001.7 |
| 20260504110629 | 5 | 0 | 20.9 | 32.2 | 0.00 | 2.95 | 0.05 | 80 | 1001.8 |
| 20260504110624 | 5 | 0 | 20.9 | 37.0 | 0.00 | 2.95 | 0.05 | 79 | 1002.0 |
| 20260504110608 | 5 | 0 | 24.1 | 45.1 | 0.00 | 2.95 | 0.05 | 78 | 1002.1 |
| 20260504100534 | 5 | 0 | 16.1 | 37.0 | 0.00 | 2.95 | 0.05 | 84 | 1000.8 |
| 20260504081527 | 6 | 0 | 19.3 | 35.4 | 0.00 | 2.95 | 0.05 | 88 | 998.2 |
| 20260504081027 | 6 | 0 | 20.9 | 37.0 | 0.00 | 2.95 | 0.05 | 88 | 998.1 |
| 20260504080529 | 6 | 0 | 24.1 | 37.0 | 0.00 | 2.95 | 0.05 | 88 | 998.1 |
| 20260504050730 | 4 | 0 | 17.7 | 35.4 | 0.03 | 2.95 | 0.05 | 92 | 995.4 |
| 20260504050228 | 3 | 0 | 24.1 | 35.4 | 0.03 | 2.95 | 0.05 | 92 | 994.9 |
| 20260504050222 | 3 | 0 | 24.1 | 35.4 | 0.03 | 2.95 | 0.05 | 92 | 994.8 |
| 20260504050215 | 4 | 0 | 19.3 | 37.0 | 0.03 | 2.95 | 0.05 | 92 | 995.2 |
| 20260504050144 | 4 | 0 | 22.5 | 33.8 | 0.03 | 2.95 | 0.05 | 92 | 995.5 |
| 20260504045537 | 4 | 0 | 14.5 | 35.4 | 0.03 | 2.95 | 0.05 | 92 | 995.3 |
| 20260504044635 | 3 | 0 | 22.5 | 41.8 | 0.03 | 2.95 | 0.05 | 92 | 995.1 |
| 20260504043149 | 3 | 0 | 22.5 | 38.6 | 0.03 | 2.95 | 0.05 | 92 | 994.9 |
| 20260504041522 | 3 | 0 | 25.7 | 46.7 | 0.00 | 2.92 | 0.03 | 92 | 994.7 |
| 20260504041022 | 3 | 0 | 24.1 | 46.7 | 0.00 | 2.92 | 0.03 | 92 | 994.6 |
| 20260504040522 | 3 | 0 | 24.1 | 37.0 | 0.03 | 2.92 | 0.03 | 92 | 994.5 |
| 20260504040021 | 3 | 0 | 20.9 | 49.9 | 0.03 | 2.92 | 0.03 | 92 | 994.5 |
| 20260504035631 | 3 | 0 | 24.1 | 41.8 | 0.03 | 2.92 | 0.03 | 92 | 994.3 |
| 20260504035604 | 3 | 0 | 27.4 | 49.9 | 0.03 | 2.92 | 0.03 | 92 | 994.4 |
| 20260504034530 | 3 | 0 | 27.4 | 38.6 | 0.03 | 2.92 | 0.03 | 92 | 994.2 |
| 20260504034025 | 3 | 0 | 24.1 | 38.6 | 0.03 | 2.92 | 0.03 | 92 | 994.1 |
| 20260504033525 | 3 | 0 | 20.9 | 35.4 | 0.03 | 2.92 | 0.03 | 92 | 994.0 |
| 20260504033020 | 3 | 0 | 20.9 | 33.8 | 0.03 | 2.92 | 0.03 | 92 | 993.8 |
| 20260504032520 | 3 | 0 | 22.5 | 41.8 | 0.03 | 2.92 | 0.03 | 92 | 993.9 |
| 20260504032020 | 3 | 0 | 25.7 | 43.5 | 0.03 | 2.92 | 0.03 | 92 | 993.7 |
| 20260504031520 | 3 | 0 | 25.7 | 49.9 | 0.03 | 2.92 | 0.03 | 91 | 993.6 |
| 20260504031410 | 3 | 0 | 27.4 | 49.9 | 0.03 | 2.90 | 0.03 | 91 | 993.6 |
| 20260504030522 | 3 | 0 | 27.4 | 41.8 | 0.00 | 2.90 | 0.00 | 91 | 993.3 |
| 20260504030022 | 3 | 0 | 27.4 | 43.5 | 0.00 | 2.90 | 0.00 | 91 | 993.1 |
| 20260504025521 | 3 | 0 | 25.7 | 51.5 | 0.00 | 2.90 | 2.90 | 92 | 993.1 |
| 20260504025020 | 3 | 0 | 30.6 | 51.5 | 0.00 | 2.90 | 2.90 | 92 | 992.9 |
| 20260504024519 | 3 | 0 | 20.9 | 57.9 | 0.00 | 2.90 | 2.90 | 91 | 992.8 |
| 20260504024020 | 3 | 0 | 27.4 | 57.9 | 0.00 | 2.90 | 2.90 | 91 | 992.5 |
| 20260504023838 | 3 | 0 | 24.1 | 46.7 | 0.00 | 2.90 | 2.90 | 91 | 992.6 |
| 20260504023021 | 3 | 0 | 24.1 | 51.5 | 0.00 | 2.90 | 2.90 | 91 | 992.3 |
| 20260504022519 | 3 | 0 | 33.8 | 51.5 | 0.00 | 2.90 | 2.90 | 91 | 992.3 |
| 20260504022250 | 3 | 0 | 20.9 | 45.1 | 0.00 | 2.90 | 2.90 | 91 | 992.3 |
| 20260504022039 | 3 | 0 | 20.9 | 45.1 | 0.00 | 2.90 | 2.90 | 91 | 992.3 |
| 20260504021520 | 3 | 0 | 30.6 | 45.1 | 0.00 | 2.90 | 2.90 | 91 | 992.0 |
| 20260504021019 | 3 | 0 | 29.0 | 48.3 | 0.00 | 2.90 | 2.90 | 91 | 992.1 |
| 20260504020520 | 3 | 0 | 30.6 | 48.3 | 0.00 | 2.90 | 2.90 | 91 | 991.7 |
| 20260504020314 | 3 | 0 | 22.5 | 46.7 | 0.00 | 2.90 | 2.90 | 92 | 991.7 |
| 20260504015840 | 3 | 0 | 24.1 | 46.7 | 0.00 | 2.90 | 2.90 | 91 | 991.5 |
| 20260504015345 | 3 | 0 | 25.7 | 41.8 | 0.00 | 2.90 | 2.90 | 92 | 991.3 |
| 20260504014519 | 2 | 0 | 29.0 | 41.8 | 0.00 | 2.90 | 2.90 | 92 | 991.2 |
| 20260504014018 | 2 | 0 | 25.7 | 45.1 | 0.03 | 2.90 | 2.90 | 92 | 991.0 |
| 20260504013518 | 2 | 0 | 27.4 | 53.1 | 0.03 | 2.90 | 2.90 | 92 | 990.8 |
| 20260504013028 | 2 | 0 | 25.7 | 53.1 | 0.05 | 2.90 | 2.90 | 92 | 990.7 |
| 20260504012518 | 2 | 0 | 22.5 | 46.7 | 0.05 | 2.90 | 2.90 | 92 | 990.6 |
| 20260504012330 | 2 | 0 | 24.1 | 51.5 | 0.05 | 2.90 | 2.90 | 93 | 990.5 |